RYR26YA EBCI-EPMO

Flight info

Callsign RYR26YA
Flight time 1h 37m
Altitude 37000
Route SPI Y862 KENUM N853 ONUNE DCT LARBU DCT SUBIX DCT OBOKU P150 DOSIX
Aircraft B38M/M-SDE1FGHILORVWXY/HB1

Departure

Time 2026-04-22 12:45
Airport Brussels South Charleroi Airport (EBCI)

Arrival

Time 2026-04-22 14:23
Airport Warsaw Modlin Airport (EPMO)
Time Latitude Longitude Altitude Speed Heading
2026-04-22 12:28 50.46789 4.46819 571 ft 0 kts 335°
2026-04-22 12:32 50.46767 4.46835 559 ft 9 kts 339°
2026-04-22 12:32 50.46703 4.46755 586 ft 17 kts 56°
2026-04-22 12:33 50.46666 4.46677 589 ft 0 kts 66°
2026-04-22 12:33 50.46662 4.46660 586 ft 5 kts 73°
2026-04-22 12:33 50.46661 4.46653 586 ft 0 kts 65°
2026-04-22 12:36 50.46664 4.46665 586 ft 2 kts 66°
2026-04-22 12:37 50.46667 4.46674 586 ft 3 kts 66°
2026-04-22 12:37 50.46673 4.46694 586 ft 4 kts 66°
2026-04-22 12:37 50.46685 4.46745 588 ft 3 kts 88°
2026-04-22 12:37 50.46671 4.46780 586 ft 5 kts 142°
2026-04-22 12:38 50.46636 4.46802 590 ft 7 kts 165°
2026-04-22 12:38 50.46597 4.46776 590 ft 6 kts 246°
2026-04-22 12:38 50.46585 4.46729 589 ft 8 kts 247°
2026-04-22 12:38 50.46549 4.46604 589 ft 12 kts 245°
2026-04-22 12:39 50.46522 4.46514 589 ft 16 kts 245°
2026-04-22 12:39 50.46396 4.46091 595 ft 22 kts 243°
2026-04-22 12:39 50.46343 4.45901 607 ft 17 kts 246°
2026-04-22 12:40 50.46298 4.45744 623 ft 17 kts 245°
2026-04-22 12:40 50.46275 4.45666 629 ft 18 kts 246°
2026-04-22 12:40 50.46251 4.45580 626 ft 20 kts 246°
2026-04-22 12:41 50.46162 4.45268 636 ft 25 kts 245°
2026-04-22 12:41 50.46115 4.45107 628 ft 23 kts 246°
2026-04-22 12:41 50.46052 4.44893 626 ft 16 kts 245°
2026-04-22 12:41 50.46002 4.44784 629 ft 0 kts 213°
2026-04-22 12:43 50.45993 4.44775 628 ft 3 kts 213°
2026-04-22 12:43 50.45976 4.44768 625 ft 2 kts 179°
2026-04-22 12:44 50.45949 4.44773 625 ft 7 kts 167°
2026-04-22 12:44 50.45892 4.44804 638 ft 10 kts 161°
2026-04-22 12:44 50.45865 4.44869 633 ft 2 kts 70°
2026-04-22 12:44 50.45868 4.44879 633 ft 12 kts 66°
2026-04-22 12:45 50.46001 4.45335 630 ft 77 kts 65°
2026-04-22 12:45 50.46298 4.46351 606 ft 128 kts 65°
2026-04-22 12:45 50.46711 4.47772 866 ft 145 kts 65°
2026-04-22 12:45 50.47102 4.49258 1405 ft 151 kts 66°
2026-04-22 12:46 50.47678 4.50706 1897 ft 164 kts 44°
2026-04-22 12:46 50.48612 4.51767 2511 ft 173 kts 38°
2026-04-22 12:46 50.49692 4.52868 2983 ft 194 kts 38°
2026-04-22 12:46 50.50670 4.54490 3259 ft 222 kts 58°
2026-04-22 12:47 50.51573 4.56511 4065 ft 228 kts 56°
2026-04-22 12:47 50.52551 4.58575 4712 ft 245 kts 56°
2026-04-22 12:47 50.53624 4.60749 5417 ft 253 kts 56°
2026-04-22 12:47 50.54711 4.62964 6305 ft 256 kts 58°
2026-04-22 12:48 50.55400 4.65474 7158 ft 253 kts 81°
2026-04-22 12:48 50.55658 4.68221 7933 ft 257 kts 82°
2026-04-22 12:48 50.55963 4.70996 8694 ft 261 kts 81°
2026-04-22 12:48 50.56280 4.73820 9506 ft 263 kts 81°
2026-04-22 12:49 50.56603 4.76667 10175 ft 269 kts 81°
2026-04-22 12:49 50.56930 4.79571 10757 ft 277 kts 81°
2026-04-22 12:49 50.57279 4.82662 11088 ft 297 kts 80°
2026-04-22 12:49 50.57653 4.85965 11343 ft 317 kts 81°
2026-04-22 12:50 50.58047 4.89437 11679 ft 331 kts 80°
2026-04-22 12:50 50.58454 4.93050 12314 ft 336 kts 80°
2026-04-22 12:50 50.58858 4.96679 13087 ft 340 kts 80°
2026-04-22 12:50 50.59269 5.00385 13842 ft 345 kts 80°
2026-04-22 12:51 50.59683 5.04137 14549 ft 348 kts 80°
2026-04-22 12:51 50.60093 5.07857 15263 ft 351 kts 80°
2026-04-22 12:51 50.60514 5.11694 16009 ft 354 kts 80°
2026-04-22 12:51 50.60930 5.15496 16711 ft 357 kts 80°
2026-04-22 12:52 50.61354 5.19377 17410 ft 360 kts 80°
2026-04-22 12:52 50.61780 5.23296 18105 ft 363 kts 79°
2026-04-22 12:52 50.62203 5.27203 18747 ft 366 kts 79°
2026-04-22 12:52 50.62632 5.31173 19317 ft 369 kts 79°
2026-04-22 12:53 50.63060 5.35147 19882 ft 371 kts 79°
2026-04-22 12:53 50.63493 5.39194 20438 ft 374 kts 79°
2026-04-22 12:53 50.63924 5.43223 20980 ft 378 kts 79°
2026-04-22 12:53 50.64363 5.47333 21534 ft 381 kts 79°
2026-04-22 12:54 50.64802 5.51473 22082 ft 384 kts 79°
2026-04-22 12:54 50.65239 5.55601 22613 ft 387 kts 79°
2026-04-22 12:54 50.65684 5.59825 23171 ft 389 kts 79°
2026-04-22 12:54 50.66119 5.63968 23693 ft 393 kts 79°
2026-04-22 12:55 50.66566 5.68240 24174 ft 396 kts 79°
2026-04-22 12:55 50.67018 5.72572 24615 ft 399 kts 79°
2026-04-22 12:55 50.67463 5.76862 25044 ft 403 kts 79°
2026-04-22 12:55 50.67916 5.81247 25473 ft 406 kts 79°
2026-04-22 12:56 50.68375 5.85699 25927 ft 410 kts 79°
2026-04-22 12:56 50.68830 5.90121 26339 ft 413 kts 79°
2026-04-22 12:56 50.69290 5.94620 26747 ft 417 kts 79°
2026-04-22 12:56 50.69751 5.99147 27154 ft 420 kts 79°
2026-04-22 12:57 50.70217 6.03742 27560 ft 424 kts 79°
2026-04-22 12:57 50.70676 6.08281 27948 ft 427 kts 79°
2026-04-22 12:57 50.71143 6.12927 28336 ft 430 kts 79°
2026-04-22 12:57 50.71611 6.17606 28732 ft 433 kts 79°
2026-04-22 12:58 50.72116 6.22313 29103 ft 435 kts 76°
2026-04-22 12:58 50.73006 6.26875 29454 ft 435 kts 62°
2026-04-22 12:58 50.74712 6.30791 29825 ft 435 kts 47°
2026-04-22 12:58 50.76726 6.34326 30091 ft 439 kts 48°
2026-04-22 12:59 50.78626 6.38127 30464 ft 442 kts 56°
2026-04-22 12:59 50.80144 6.42381 30861 ft 443 kts 60°
2026-04-22 12:59 50.81671 6.46642 31249 ft 443 kts 56°
2026-04-22 12:59 50.83366 6.50640 31638 ft 443 kts 54°
2026-04-22 13:00 50.85080 6.54696 32043 ft 443 kts 54°
2026-04-22 13:00 50.86783 6.58785 32448 ft 443 kts 55°
2026-04-22 13:00 50.88472 6.62883 32860 ft 443 kts 55°
2026-04-22 13:00 50.90151 6.66978 33260 ft 443 kts 55°
2026-04-22 13:01 50.91831 6.71079 33656 ft 443 kts 55°
2026-04-22 13:01 50.93488 6.75136 34038 ft 443 kts 55°
2026-04-22 13:01 50.95166 6.79251 34408 ft 443 kts 55°
2026-04-22 13:01 50.96840 6.83362 34730 ft 443 kts 55°
2026-04-22 13:02 50.98493 6.87428 35054 ft 443 kts 55°
2026-04-22 13:02 51.00164 6.91544 35367 ft 443 kts 55°
2026-04-22 13:02 51.01835 6.95667 35690 ft 443 kts 55°
2026-04-22 13:02 51.03500 6.99781 36010 ft 442 kts 55°
2026-04-22 13:03 51.05166 7.03906 36311 ft 442 kts 55°
2026-04-22 13:03 51.06825 7.08017 36614 ft 442 kts 55°
2026-04-22 13:03 51.08439 7.12118 36907 ft 442 kts 56°
2026-04-22 13:03 51.10073 7.16270 37193 ft 442 kts 56°
2026-04-22 13:04 51.11703 7.20371 37358 ft 443 kts 56°
2026-04-22 13:04 51.15059 7.28580 37346 ft 446 kts 55°
2026-04-22 13:05 51.18397 7.36900 37348 ft 446 kts 56°
2026-04-22 13:05 51.21722 7.45257 37356 ft 446 kts 56°
2026-04-22 13:06 51.25038 7.53621 37359 ft 446 kts 56°
2026-04-22 13:06 51.28345 7.61989 37364 ft 446 kts 56°
2026-04-22 13:07 51.31650 7.70378 37363 ft 446 kts 56°
2026-04-22 13:07 51.34958 7.78802 37367 ft 446 kts 56°
2026-04-22 13:08 51.38244 7.87198 37369 ft 446 kts 56°
2026-04-22 13:08 51.41521 7.95597 37365 ft 445 kts 56°
2026-04-22 13:09 51.44788 8.04001 37360 ft 445 kts 56°
2026-04-22 13:09 51.48053 8.12424 37357 ft 445 kts 57°
2026-04-22 13:10 51.51326 8.20898 37364 ft 445 kts 57°
2026-04-22 13:10 51.54586 8.29366 37367 ft 445 kts 57°
2026-04-22 13:11 51.57826 8.37809 37370 ft 445 kts 57°
2026-04-22 13:11 51.61061 8.46265 37376 ft 445 kts 57°
2026-04-22 13:12 51.64285 8.54722 37375 ft 445 kts 57°
2026-04-22 13:12 51.67534 8.63273 37372 ft 444 kts 57°
2026-04-22 13:13 51.70746 8.71753 37373 ft 445 kts 57°
2026-04-22 13:13 51.73957 8.80262 37371 ft 445 kts 57°
2026-04-22 13:14 51.77165 8.88788 37364 ft 444 kts 57°
2026-04-22 13:14 51.80364 8.97314 37358 ft 444 kts 57°
2026-04-22 13:15 51.83549 9.05828 37357 ft 444 kts 58°
2026-04-22 13:15 51.86732 9.14363 37353 ft 444 kts 58°
2026-04-22 13:16 51.89466 9.23371 37350 ft 445 kts 70°
2026-04-22 13:16 51.90462 9.33184 37362 ft 449 kts 87°
2026-04-22 13:17 51.90804 9.43267 37351 ft 446 kts 75°
2026-04-22 13:17 51.92571 9.52861 37353 ft 446 kts 74°
2026-04-22 13:18 51.93454 9.62809 37364 ft 448 kts 79°
2026-04-22 13:18 51.94591 9.72747 37369 ft 447 kts 77°
2026-04-22 13:19 51.95702 9.82635 37367 ft 446 kts 78°
2026-04-22 13:19 51.96788 9.92546 37362 ft 446 kts 78°
2026-04-22 13:20 51.97863 10.02445 37365 ft 446 kts 78°
2026-04-22 13:20 51.98931 10.12361 37367 ft 446 kts 78°
2026-04-22 13:21 51.99987 10.22244 37365 ft 446 kts 78°
2026-04-22 13:21 52.01037 10.32160 37355 ft 446 kts 78°
2026-04-22 13:22 52.02076 10.42052 37355 ft 445 kts 78°
2026-04-22 13:22 52.03108 10.51956 37360 ft 445 kts 78°
2026-04-22 13:23 52.04132 10.61873 37357 ft 445 kts 78°
2026-04-22 13:23 52.05144 10.71761 37359 ft 445 kts 79°
2026-04-22 13:24 52.06155 10.81718 37358 ft 444 kts 79°
2026-04-22 13:24 52.07150 10.91607 37352 ft 444 kts 79°
2026-04-22 13:25 52.08138 11.01510 37349 ft 444 kts 79°
2026-04-22 13:25 52.09114 11.11387 37347 ft 444 kts 79°
2026-04-22 13:26 52.10085 11.21290 37346 ft 443 kts 79°
2026-04-22 13:26 52.11048 11.31207 37347 ft 443 kts 79°
2026-04-22 13:27 52.11999 11.41094 37344 ft 443 kts 79°
2026-04-22 13:27 52.12943 11.50993 37345 ft 443 kts 79°
2026-04-22 13:28 52.13875 11.60866 37342 ft 442 kts 79°
2026-04-22 13:28 52.14802 11.70768 37328 ft 442 kts 79°
2026-04-22 13:29 52.15569 11.79036 37333 ft 442 kts 79°
2026-04-22 13:29 52.16484 11.88986 37336 ft 442 kts 80°
2026-04-22 13:30 52.17385 11.98869 37326 ft 442 kts 80°
2026-04-22 13:30 52.18276 12.08747 37329 ft 442 kts 80°
2026-04-22 13:31 52.19158 12.18617 37325 ft 442 kts 80°
2026-04-22 13:31 52.20039 12.28570 37326 ft 441 kts 80°
2026-04-22 13:32 52.20906 12.38473 37320 ft 441 kts 80°
2026-04-22 13:32 52.21765 12.48374 37316 ft 441 kts 80°
2026-04-22 13:33 52.22615 12.58273 37318 ft 440 kts 81°
2026-04-22 13:33 52.23454 12.68136 37306 ft 440 kts 81°
2026-04-22 13:34 52.24286 12.78031 37309 ft 439 kts 81°
2026-04-22 13:34 52.25109 12.87909 37299 ft 439 kts 81°
2026-04-22 13:35 52.25922 12.97773 37298 ft 439 kts 81°
2026-04-22 13:35 52.26726 13.07639 37293 ft 439 kts 81°
2026-04-22 13:36 52.27522 13.17496 37294 ft 438 kts 81°
2026-04-22 13:36 52.28308 13.27342 37292 ft 438 kts 81°
2026-04-22 13:37 52.29089 13.37242 37295 ft 437 kts 81°
2026-04-22 13:37 52.29857 13.47068 37295 ft 437 kts 81°
2026-04-22 13:38 52.30616 13.56892 37293 ft 436 kts 81°
2026-04-22 13:38 52.31735 13.71592 37293 ft 435 kts 81°
2026-04-22 13:39 52.32470 13.81368 37284 ft 434 kts 81°
2026-04-22 13:39 52.33198 13.91169 37280 ft 434 kts 81°
2026-04-22 13:40 52.33917 14.00971 37270 ft 433 kts 82°
2026-04-22 13:40 52.34626 14.10724 37268 ft 433 kts 82°
2026-04-22 13:41 52.35329 14.20484 37260 ft 432 kts 82°
2026-04-22 13:41 52.36024 14.30232 37262 ft 431 kts 82°
2026-04-22 13:42 52.36709 14.39951 37258 ft 431 kts 82°
2026-04-22 13:42 52.37391 14.49744 37262 ft 430 kts 82°
2026-04-22 13:43 52.38023 14.59458 37250 ft 430 kts 85°
2026-04-22 13:43 52.37678 14.69234 37257 ft 433 kts 92°
2026-04-22 13:44 52.37457 14.79069 37251 ft 432 kts 89°
2026-04-22 13:44 52.37239 14.88856 37246 ft 431 kts 90°
2026-04-22 13:45 52.36988 14.98660 37251 ft 432 kts 90°
2026-04-22 13:45 52.36727 15.08466 37238 ft 431 kts 90°
2026-04-22 13:46 52.36458 15.18256 37247 ft 431 kts 90°
2026-04-22 13:46 52.36181 15.28049 37238 ft 431 kts 90°
2026-04-22 13:47 52.35896 15.37821 37237 ft 431 kts 90°
2026-04-22 13:47 52.35601 15.47645 37228 ft 431 kts 90°
2026-04-22 13:48 52.35308 15.57172 37227 ft 426 kts 90°
2026-04-22 13:48 52.35003 15.66819 37236 ft 424 kts 90°
2026-04-22 13:49 52.34691 15.76450 37229 ft 425 kts 90°
2026-04-22 13:49 52.34370 15.86085 37225 ft 424 kts 90°
2026-04-22 13:50 52.34043 15.95693 37223 ft 424 kts 90°
2026-04-22 13:50 52.33705 16.05381 37224 ft 424 kts 90°
2026-04-22 13:51 52.33362 16.14988 37209 ft 424 kts 90°
2026-04-22 13:51 52.33012 16.24586 37207 ft 424 kts 91°
2026-04-22 13:52 52.32654 16.34178 37200 ft 424 kts 91°
2026-04-22 13:52 52.32287 16.43788 37193 ft 423 kts 91°
2026-04-22 13:53 52.31914 16.53375 37192 ft 423 kts 91°
2026-04-22 13:53 52.31530 16.63013 37190 ft 423 kts 91°
2026-04-22 13:54 52.31141 16.72594 37184 ft 423 kts 91°
2026-04-22 13:54 52.30744 16.82186 37185 ft 423 kts 91°
2026-04-22 13:55 52.30340 16.91747 37182 ft 423 kts 91°
2026-04-22 13:55 52.29927 17.01350 37187 ft 424 kts 91°
2026-04-22 13:56 52.29508 17.10887 37186 ft 424 kts 91°
2026-04-22 13:56 52.29078 17.20507 37184 ft 424 kts 91°
2026-04-22 13:57 52.28642 17.30107 37183 ft 424 kts 91°
2026-04-22 13:57 52.28196 17.39713 37178 ft 424 kts 91°
2026-04-22 13:58 52.27747 17.49256 37183 ft 424 kts 91°
2026-04-22 13:58 52.27285 17.58887 37182 ft 423 kts 91°
2026-04-22 13:59 52.26822 17.68378 36556 ft 417 kts 91°
2026-04-22 13:59 52.26594 17.73024 35921 ft 416 kts 91°
2026-04-22 13:59 52.26360 17.77752 35321 ft 413 kts 91°
2026-04-22 14:00 52.26137 17.82247 34777 ft 410 kts 91°
2026-04-22 14:00 52.25906 17.86845 34224 ft 407 kts 91°
2026-04-22 14:00 52.25672 17.91459 33538 ft 405 kts 91°
2026-04-22 14:00 52.25441 17.95994 32804 ft 404 kts 91°
2026-04-22 14:01 52.25309 18.00572 32020 ft 401 kts 85°
2026-04-22 14:01 52.25744 18.04932 31248 ft 398 kts 73°
2026-04-22 14:01 52.26222 18.07534 30779 ft 398 kts 73°
2026-04-22 14:01 52.26964 18.11922 29888 ft 400 kts 77°
2026-04-22 14:02 52.27382 18.16383 28909 ft 402 kts 82°
2026-04-22 14:02 52.27774 18.20931 28069 ft 401 kts 78°
2026-04-22 14:02 52.28285 18.25405 27372 ft 398 kts 78°
2026-04-22 14:02 52.28794 18.29792 26699 ft 395 kts 78°
2026-04-22 14:03 52.29301 18.34172 26043 ft 393 kts 78°
2026-04-22 14:03 52.29807 18.38555 25425 ft 391 kts 78°
2026-04-22 14:03 52.30301 18.42855 25089 ft 387 kts 78°
2026-04-22 14:03 52.30797 18.47190 24767 ft 388 kts 78°
2026-04-22 14:04 52.31294 18.51546 24461 ft 388 kts 78°
2026-04-22 14:04 52.31790 18.55901 24151 ft 387 kts 78°
2026-04-22 14:04 52.32276 18.60191 23853 ft 386 kts 78°
2026-04-22 14:04 52.32760 18.64477 23524 ft 385 kts 78°
2026-04-22 14:05 52.33248 18.68810 23160 ft 384 kts 78°
2026-04-22 14:05 52.33726 18.73063 22806 ft 383 kts 78°
2026-04-22 14:05 52.34679 18.81602 22121 ft 381 kts 77°
2026-04-22 14:06 52.35157 18.85905 21777 ft 380 kts 77°
2026-04-22 14:06 52.35623 18.90116 21435 ft 379 kts 77°
2026-04-22 14:06 52.36086 18.94318 21105 ft 377 kts 77°
2026-04-22 14:06 52.36553 18.98566 20769 ft 376 kts 77°
2026-04-22 14:07 52.37011 19.02744 20441 ft 375 kts 77°
2026-04-22 14:07 52.37470 19.06950 20111 ft 374 kts 77°
2026-04-22 14:07 52.37927 19.11155 19780 ft 373 kts 77°
2026-04-22 14:07 52.38376 19.15299 19459 ft 372 kts 77°
2026-04-22 14:08 52.38826 19.19490 19142 ft 372 kts 77°
2026-04-22 14:08 52.39275 19.23668 18831 ft 371 kts 77°
2026-04-22 14:08 52.39714 19.27775 18519 ft 370 kts 77°
2026-04-22 14:08 52.40158 19.31932 18154 ft 369 kts 77°
2026-04-22 14:09 52.40597 19.36063 17811 ft 368 kts 77°
2026-04-22 14:09 52.41030 19.40152 17346 ft 365 kts 77°
2026-04-22 14:09 52.41464 19.44265 16793 ft 364 kts 77°
2026-04-22 14:09 52.41889 19.48309 16275 ft 363 kts 77°
2026-04-22 14:10 52.42317 19.52389 15737 ft 361 kts 77°
2026-04-22 14:10 52.42741 19.56446 15225 ft 360 kts 77°
2026-04-22 14:10 52.43158 19.60456 14729 ft 359 kts 77°
2026-04-22 14:10 52.43571 19.64428 14267 ft 357 kts 77°
2026-04-22 14:11 52.43986 19.68449 13761 ft 356 kts 77°
2026-04-22 14:11 52.44399 19.72458 13258 ft 354 kts 77°
2026-04-22 14:11 52.44804 19.76397 12732 ft 353 kts 77°
2026-04-22 14:11 52.45211 19.80379 12255 ft 351 kts 77°
2026-04-22 14:12 52.45610 19.84288 11762 ft 349 kts 77°
2026-04-22 14:12 52.46010 19.88221 11284 ft 347 kts 77°
2026-04-22 14:12 52.46401 19.92088 10828 ft 346 kts 77°
2026-04-22 14:12 52.46794 19.95974 10375 ft 344 kts 77°
2026-04-22 14:13 52.47184 19.99858 9890 ft 343 kts 77°
2026-04-22 14:13 52.47568 20.03679 9423 ft 341 kts 77°
2026-04-22 14:13 52.47950 20.07506 8944 ft 339 kts 77°
2026-04-22 14:13 52.48330 20.11320 8474 ft 337 kts 77°
2026-04-22 14:14 52.48699 20.15045 8238 ft 329 kts 77°
2026-04-22 14:14 52.49060 20.18705 8073 ft 319 kts 77°
2026-04-22 14:14 52.49406 20.22221 7935 ft 310 kts 77°
2026-04-22 14:14 52.49745 20.25673 7740 ft 302 kts 77°
2026-04-22 14:15 52.50077 20.29054 7451 ft 299 kts 77°
2026-04-22 14:15 52.50400 20.32370 7326 ft 289 kts 76°
2026-04-22 14:15 52.50709 20.35546 7208 ft 279 kts 76°
2026-04-22 14:15 52.51009 20.38644 7082 ft 270 kts 76°
2026-04-22 14:16 52.51305 20.41701 6772 ft 269 kts 76°
2026-04-22 14:16 52.51597 20.44711 6486 ft 269 kts 76°
2026-04-22 14:16 52.51889 20.47736 6165 ft 269 kts 76°
2026-04-22 14:16 52.52179 20.50756 5884 ft 268 kts 77°
2026-04-22 14:17 52.52468 20.53778 5589 ft 267 kts 77°
2026-04-22 14:17 52.52657 20.55761 5440 ft 259 kts 77°
2026-04-22 14:17 52.53017 20.59550 5142 ft 246 kts 76°
2026-04-22 14:17 52.53186 20.61377 5024 ft 238 kts 79°
2026-04-22 14:18 52.52784 20.64789 4788 ft 225 kts 111°
2026-04-22 14:18 52.52371 20.66327 4629 ft 218 kts 110°
2026-04-22 14:18 52.51779 20.68589 4469 ft 209 kts 110°
2026-04-22 14:18 52.51213 20.70723 4290 ft 204 kts 110°
2026-04-22 14:19 52.50641 20.72861 4097 ft 203 kts 111°
2026-04-22 14:19 52.50079 20.74916 3947 ft 194 kts 111°
2026-04-22 14:19 52.49531 20.76924 3680 ft 191 kts 111°
2026-04-22 14:19 52.48908 20.78837 3204 ft 191 kts 128°
2026-04-22 14:20 52.46669 20.79806 2510 ft 160 kts 207°
2026-04-22 14:20 52.45831 20.78791 2211 ft 144 kts 240°
2026-04-22 14:20 52.45455 20.77361 1851 ft 135 kts 269°
2026-04-22 14:21 52.45803 20.74489 1128 ft 129 kts 287°
2026-04-22 14:21 52.45854 20.73055 863 ft 121 kts 270°
2026-04-22 14:22 52.45604 20.70467 504 ft 116 kts 263°
2026-04-22 14:22 52.45482 20.69130 583 ft 124 kts 265°
2026-04-22 14:22 52.45218 20.66173 363 ft 128 kts 261°
2026-04-22 14:23 52.45103 20.64975 350 ft 75 kts 261°
2026-04-22 14:23 52.45053 20.64440 359 ft 36 kts 262°
2026-04-22 14:23 52.45017 20.64016 352 ft 38 kts 262°
2026-04-22 14:23 52.44981 20.63684 354 ft 17 kts 261°
2026-04-22 14:24 52.44964 20.63503 356 ft 16 kts 261°
2026-04-22 14:24 52.44886 20.63395 351 ft 16 kts 179°
2026-04-22 14:24 52.44785 20.63421 357 ft 15 kts 171°
2026-04-22 14:24 52.44671 20.63452 357 ft 18 kts 171°
2026-04-22 14:25 52.44633 20.63598 352 ft 16 kts 81°
2026-04-22 14:25 52.44653 20.63797 360 ft 19 kts 81°
2026-04-22 14:25 52.44675 20.64021 354 ft 21 kts 81°
2026-04-22 14:25 52.44698 20.64274 354 ft 24 kts 81°
2026-04-22 14:26 52.44724 20.64556 358 ft 26 kts 81°
2026-04-22 14:26 52.44753 20.64861 356 ft 25 kts 81°
2026-04-22 14:26 52.44764 20.64955 356 ft 4 kts 101°
2026-04-22 14:26 52.44751 20.64967 354 ft 2 kts 182°
2026-04-22 14:27 52.44726 20.64947 352 ft 5 kts 208°
2026-04-22 14:27 52.44718 20.64939 358 ft 0 kts 208°